#timestamp,LO_Frequency,Hit,StdDev 
1687078815.3,286046999.5,N
1687078835.2,286046999.0,N
1687078855.0,286046998.7,N
1687078855.9,286046998.7,N
1687078875.7,286046998.7,N
1687078895.6,286046998.9,N
1687078915.4,286047001.2,N
1687078935.3,286046998.6,N
1687078955.1,286047001.2,N
1687078956.0,286047001.2,N
1687078975.8,286046999.3,N
1687078995.7,286046999.3,N
1687079015.5,286046998.8,N
1687079035.3,286046998.6,N
1687079055.2,286046999.0,N
1687079075.0,286046998.4,N
1687079075.9,286046998.4,N
1687079095.8,286046999.3,N
1687079115.6,286046999.6,N
1687079135.4,286046997.8,N
1687079155.3,286046997.7,N
1687079175.1,286046999.4,N
1687079195.8,286046998.9,N
1687079215.7,286046999.0,N
1687079235.5,286046998.9,N
1687079255.4,286046997.6,N
1687079275.2,286046995.0,Y
1687079295.0,286046996.1,P
1687079295.9,286046996.1,N
1687079315.8,286046997.3,N
1687079335.6,286046997.6,N
1687079355.4,286046995.5,Y
1687079375.3,286046997.0,P
1687079395.1,286046996.7,P
1687079415.9,286046998.6,P
1687079435.7,286046998.1,N
1687079455.5,286046999.3,N
1687079475.4,286046998.4,N
1687079495.2,286046999.0,N
1687079515.1,286046996.5,Y
1687079516.0,286046996.5,P
1687079535.8,286047000.0,N
1687079555.6,286047002.8,N
1687079575.5,286047002.8,N
1687079595.3,286047000.0,N
1687079615.1,286047001.2,N
1687079635.9,286046998.2,N
1687079655.7,286046999.4,N
1687079675.6,286046998.4,N
1687079695.4,286046999.4,N
1687079715.2,286046996.6,N
1687079735.1,286046998.1,N
1687079736.0,286046998.1,N
1687079755.8,286047000.6,N
1687079775.6,286046999.3,N
1687079795.5,286046999.5,N
1687079815.3,286046999.5,N
1687079835.2,286046998.6,N
1687079855.9,286047000.6,N
1687079875.7,286047000.5,N
1687079895.6,286047001.2,N
1687079915.4,286046998.7,N
1687079935.3,286047000.8,N
1687079955.1,286047001.6,N
1687079956.0,286047001.6,N
1687079975.8,286046998.3,N
1687079995.7,286046998.5,N
1687080015.5,286046999.2,N
1687080035.3,286046997.0,N
1687080055.2,286046998.3,N
1687080075.0,286046999.3,N
1687080075.9,286046999.3,N
1687080095.8,286046999.1,N
1687080115.6,286046999.6,N
1687080135.5,286046996.9,N
1687080155.3,286046996.5,N
1687080175.1,286046999.0,N
1687080195.9,286046999.9,N
1687080215.7,286047000.5,N
1687080235.6,286046998.8,N
1687080255.4,286046999.0,N
1687080275.2,286046998.2,N
1687080295.1,286047000.0,N
1687080296.0,286047000.0,N
1687080315.8,286046998.9,N
1687080335.7,286046998.7,N
1687080355.5,286046997.0,N
1687080375.3,286046995.0,Y
1687080395.2,286046996.7,P
1687080415.0,286046995.6,P
1687080415.9,286046995.6,N
1687080435.8,286046997.7,N
1687080455.6,286046997.8,N
1687080475.5,286046999.1,N
1687080495.3,286046996.8,N
1687080515.1,286046995.8,Y
1687080535.9,286046998.2,P
1687080555.7,286046999.0,N
1687080575.6,286046996.5,P
1687080595.4,286047002.4,N
1687080615.2,286046999.7,N
1687080635.1,286047002.5,N
1687080636.0,286047002.5,N
1687080655.8,286047001.7,N
1687080675.7,286047003.9,N
1687080695.5,286047002.7,N
1687080715.3,286047004.4,N
1687080735.2,286046999.9,N
1687080755.0,286047000.8,N
1687080755.9,286047000.8,N
1687080775.8,286046998.3,N
1687080795.6,286047000.3,N
1687080815.4,286047000.6,N
1687080835.3,286047000.2,N
1687080855.1,286047002.6,N
1687080875.9,286047000.9,N
1687080895.7,286047000.7,N
1687080915.5,286046998.2,N
1687080935.4,286046999.9,N
1687080955.2,286047000.3,N
1687080975.0,286047001.9,N
1687080975.9,286047001.9,N
1687080995.8,286046999.9,N
1687081015.6,286047002.8,N
1687081035.5,286047002.4,N
1687081055.3,286047002.6,N
1687081075.1,286047002.2,N
1687081095.9,286047002.7,N
1687081115.7,286047000.0,N
1687081135.5,286047000.3,N
1687081155.4,286047000.9,N
1687081175.2,286047001.1,N
1687081195.1,286046998.7,N
1687081196.0,286046998.7,N
1687081215.8,286046998.1,N
1687081235.6,286046998.2,N
1687081255.5,286046998.2,N
1687081275.3,286047000.9,N
1687081295.1,286047001.0,N
1687081315.9,286046998.2,N
1687081335.7,286047001.1,N
1687081355.6,286047000.8,N
1687081375.4,286047000.4,N
1687081395.2,286046998.6,N
1687081415.1,286046999.6,N
1687081416.0,286046999.6,N
1687081435.8,286046999.6,N
1687081455.6,286046996.7,N
1687081475.5,286046997.8,N
1687081495.3,286046997.7,N
1687081515.2,286046995.2,N
1687081535.9,286046995.5,N
1687081555.7,286046997.1,N
1687081575.6,286046997.5,N
1687081595.4,286046997.3,N
1687081615.3,286046999.6,N
1687081635.1,286046997.7,N
1687081636.0,286046997.7,N
1687081655.8,286046997.3,N
1687081675.7,286046997.2,N
1687081695.5,286046997.3,N
1687081715.4,286046996.8,N
1687081735.2,286046997.3,N
1687081755.0,286046997.5,N
1687081755.9,286046997.5,N
1687081775.8,286046997.1,N
1687081795.6,286046994.9,Y
1687081815.5,286047001.1,P
1687081835.3,286046998.4,N
1687081855.1,286047000.7,N
1687081875.9,286047002.8,N
1687081895.7,286047002.7,N
1687081915.5,286046999.8,N
1687081935.4,286047002.7,N
1687081955.2,286047002.7,N
1687081975.1,286047002.4,N
1687081976.0,286047002.4,N
1687081995.8,286047002.7,N
1687082015.6,286047000.4,N
1687082035.5,286047000.1,N
1687082055.3,286046999.9,N
1687082075.1,286047002.8,N
1687082095.9,286047000.1,N
1687082115.7,286047000.2,N
1687082135.6,286046999.8,N
1687082155.4,286047001.6,N
1687082175.2,286046999.8,N
1687082195.1,286047002.7,N
1687082196.0,286047002.7,N
1687082215.8,286047002.7,N
1687082235.6,286047001.6,N
1687082255.5,286047002.3,N
1687082275.3,286047001.7,N
1687082295.2,286047004.3,Y
1687082315.9,286046999.7,P
1687082335.7,286047000.1,N
1687082355.6,286046999.8,N
1687082375.4,286047002.5,Y
1687082395.3,286046999.8,P
